CDT,Max TemperatureF,Mean TemperatureF,Min TemperatureF,Max Dew PointF,MeanDew PointF,Min DewpointF,Max Humidity, Mean Humidity, Min Humidity, Max Sea Level PressureIn, Mean Sea Level PressureIn, Min Sea Level PressureIn, Max VisibilityMiles, Mean VisibilityMiles, Min VisibilityMiles, Max Wind SpeedMPH, Mean Wind SpeedMPH, Max Gust SpeedMPH,PrecipitationIn, CloudCover, Events, WindDirDegrees
2013-4-1,46,40,34,39,28,18,100,67,34,30.30,30.21,30.02,10,10,10,17,12,22,0.00,4,,16
2013-4-2,48,37,27,27,23,20,90,60,35,30.37,30.32,30.29,10,10,10,9,6,,0.00,1,,57
2013-4-3,50,40,30,29,24,19,88,56,30,30.40,30.32,30.23,10,10,10,17,6,18,0.00,1,,61
2013-4-4,60,48,35,34,29,24,95,56,28,30.25,30.15,30.08,10,10,10,8,3,,0.00,3,,33
2013-4-5,68,52,37,46,39,31,94,60,40,30.19,30.08,29.93,10,10,10,14,6,,0.00,0,,182
2013-4-6,73,62,53,54,45,37,97,55,46,29.91,29.79,29.69,10,10,10,31,17,41,0.00,3,Rain,204
2013-4-7,75,59,44,61,53,45,100,81,43,29.89,29.80,29.70,10,10,10,17,6,25,0.09,4,Rain-Thunderstorm,178
2013-4-8,74,66,57,64,61,58,100,88,69,29.78,29.73,29.68,10,10,10,17,13,33,0.00,7,,207
2013-4-9,74,68,64,66,62,60,90,80,71,29.82,29.74,29.69,10,10,10,17,11,22,0.00,8,,156
2013-4-10,70,56,42,61,50,43,100,97,73,29.88,29.79,29.71,10,9,2,30,13,39,0.95,8,Rain-Thunderstorm,316
2013-4-11,41,38,35,43,36,29,100,91,66,29.80,29.76,29.72,10,10,7,21,15,25,0.00,8,,261
2013-4-12,50,40,32,35,32,29,100,77,53,30.04,29.91,29.79,10,10,10,15,10,,0.00,5,,269
2013-4-13,63,46,30,47,38,30,100,73,47,30.09,29.97,29.78,10,10,10,12,4,,0.00,3,,147
2013-4-14,77,65,53,63,53,44,100,71,35,29.76,29.61,29.49,10,10,5,30,15,48,0.04,5,Rain-Thunderstorm,223
2013-4-15,58,51,43,52,47,41,100,87,67,30.00,29.85,29.75,10,10,5,16,7,21,0.51,8,Rain-Thunderstorm,357
2013-4-16,46,44,41,46,42,38,100,96,83,30.15,30.08,29.99,10,10,8,16,11,18,0.27,8,Rain-Thunderstorm,45
2013-4-17,77,61,46,74,56,46,100,100,89,30.08,29.78,29.62,10,7,0,20,8,28,0.92,7,Fog-Rain-Thunderstorm,72
2013-4-18,52,45,37,54,44,30,100,95,70,29.92,29.68,29.49,10,8,2,22,10,30,0.91,8,Rain-Thunderstorm,297
2013-4-19,51,42,34,32,28,22,81,64,32,30.11,29.94,29.88,10,10,10,23,13,30,0.00,5,Rain,285
2013-4-20,57,43,30,36,31,25,89,60,42,30.29,30.21,30.13,10,10,10,10,5,,0.00,1,,66
2013-4-21,68,56,46,45,40,34,76,54,38,30.28,30.21,30.14,10,10,10,21,11,26,0.00,5,,158
2013-4-22,68,58,47,50,43,39,77,57,39,30.19,30.03,29.93,10,10,10,15,10,33,0.00,5,Rain,173
2013-4-23,54,45,35,54,42,36,100,99,82,30.16,30.03,29.96,10,8,2,21,12,26,0.66,8,Rain,351
2013-4-24,51,42,32,38,33,26,100,85,42,30.28,30.22,30.14,10,9,4,16,10,23,0.06,3,Snow,284
2013-4-25,65,50,35,46,39,34,99,64,37,30.35,30.28,30.20,10,10,0,13,8,,0.00,1,,199
2013-4-26,57,52,47,53,48,40,100,94,52,30.29,30.24,30.19,10,9,3,21,9,28,0.00,7,Rain,146
2013-4-27,51,49,47,52,49,47,100,100,100,30.23,30.11,30.00,10,9,4,10,7,,0.00,8,Rain,59
2013-4-28,70,59,49,57,53,49,100,84,64,30.01,29.94,29.84,10,10,10,10,5,,0.00,3,,224
2013-4-29,82,67,52,67,60,52,100,79,56,29.86,29.77,29.68,10,10,10,18,11,25,0.00,1,,196
2013-4-30,81,70,60,60,56,50,96,60,38,29.87,29.78,29.70,10,10,10,25,14,32,0.00,1,,196